This is the latest recevied weather packets stored in our database for station/object N1IJV-10. If no packets are shown the sender has not sent any weather packets the latest 1 day(s).
| Time | Temp. | Humidity | Pressure | Rain* | Wind** | Luminosity | Snow |
|---|---|---|---|---|---|---|---|
| 1778029936 | 11.11° C | 57% | 1008.2 hPa | 0 mm | 0 m/s | 0 W/m² | - |
| 1778029635 | 11.11° C | 55% | 1008.2 hPa | 0 mm | 0 m/s | 0 W/m² | - |
| 1778029331 | 11.11° C | 55% | 1008.4 hPa | 0 mm | 0 m/s | 0 W/m² | - |
| 1778029029 | 11.11° C | 56% | 1008.1 hPa | 0 mm | 0 m/s | 0 W/m² | - |
| 1778028725 | 11.67° C | 54% | 1008.2 hPa | 0 mm | 0 m/s | 0 W/m² | - |
| 1778028421 | 11.67° C | 50% | 1008.1 hPa | 0 mm | 0 m/s | 1 W/m² | - |
| 1778028119 | 11.67° C | 50% | 1008 hPa | 0 mm | 0.45 m/s, 129° | 2 W/m² | - |
| 1778027815 | 11.67° C | 49% | 1007.9 hPa | 0 mm | 0 m/s | 3 W/m² | - |
| 1778027511 | 11.67° C | 48% | 1007.9 hPa | 0 mm | 0.45 m/s, 87° | 3 W/m² | - |
| 1778027207 | 11.67° C | 49% | 1007.6 hPa | 0 mm | 0.45 m/s, 54° | 6 W/m² | - |
| 1778026903 | 11.67° C | 47% | 1007.8 hPa | 0 mm | 0.45 m/s, 86° | 9 W/m² | - |
| 1778026599 | 11.67° C | 46% | 1007.7 hPa | 0 mm | 0.45 m/s, 74° | 14 W/m² | - |
| 1778026297 | 12.22° C | 49% | 1007.8 hPa | 0 mm | 0 m/s | 17 W/m² | - |
| 1778025994 | 12.22° C | 47% | 1008.1 hPa | 0 mm | 0.45 m/s, 46° | 14 W/m² | - |
| 1778025691 | 12.22° C | 48% | 1007.8 hPa | 0 mm | 0.45 m/s, 46° | 15 W/m² | - |
| 1778025389 | 12.22° C | 47% | 1007.8 hPa | 0 mm | 0.45 m/s, 71° | 16 W/m² | - |
| 1778025086 | 12.22° C | 50% | 1007.7 hPa | 0 mm | 0.45 m/s, 66° | 23 W/m² | - |
| 1778024777 | 12.22° C | 47% | 1007.9 hPa | 0 mm | 0.45 m/s, 58° | 25 W/m² | - |
| 1778024474 | 12.22° C | 46% | 1007.6 hPa | 0 mm | 0.45 m/s, 70° | 26 W/m² | - |
| 1778024172 | 12.22° C | 49% | 1007.8 hPa | 0 mm | 0 m/s | 28 W/m² | - |
| 1778023869 | 12.22° C | 45% | 1007.8 hPa | 0 mm | 0.45 m/s, 71° | 26 W/m² | - |
| 1778023567 | 12.22° C | 47% | 1008 hPa | 0 mm | 0.89 m/s, 261° | 29 W/m² | - |
| 1778023264 | 12.22° C | 44% | 1008 hPa | 0 mm | 0.45 m/s, 32° | 31 W/m² | - |
| 1778022961 | 12.78° C | 46% | 1008.1 hPa | 0 mm | 0.89 m/s, 28° | 34 W/m² | - |
| 1778022659 | 12.78° C | 43% | 1007.9 hPa | 0 mm | 0.45 m/s, 115° | 50 W/m² | - |
* Rain latest hour (hover to see other rain measurements)
** Current wind speed in m/s (hover to see current wind gust speed)